FW8084 Weather Reports


time (UTC)temp
C
wind
direction
speed
KPH
gust
KPH
rain 1hr
cm
rain 24hr
cm
rain mn
cm
humidity
%
barometer
mb
20260906022524 25 154 0.0 0.0 0.00 4.01 4.01 91 1016.5
20260906022019 25 155 0.0 0.0 0.00 4.01 4.01 90 1016.7
20260906021514 25 187 0.0 1.6 0.00 4.01 4.01 87 1016.5
20260906021008 26 185 0.0 3.2 0.00 4.01 4.01 88 1016.5
20260906020508 26 178 0.0 1.6 0.00 4.01 4.01 88 1016.5
20260906020007 26 275 3.2 3.2 0.00 4.01 4.01 89 1016.5
20260906015507 26 184 0.0 1.6 0.00 4.01 4.01 89 1016.4
20260906015006 26 284 9.7 11.3 0.71 4.01 4.01 86 1016.5
20260906014501 26 119 0.0 1.6 1.19 3.99 3.99 82 1016.1
20260906013957 28 303 9.7 25.7 0.30 3.84 3.84 75 1016.4
20260906013453 29 262 4.8 8.0 0.00 3.78 3.78 68 1016.4
20260906012949 28 283 4.8 8.0 0.00 3.78 3.78 71 1016.5
20260906012449 28 43 1.6 1.6 0.00 3.78 3.78 73 1016.1
20260906011948 28 38 0.0 3.2 0.00 3.78 3.78 73 1016.2
20260906011443 28 157 1.6 3.2 0.00 3.78 3.78 71 1015.9
20260906010939 28 178 1.6 3.2 0.00 3.78 3.78 70 1015.9
20260906010434 28 198 4.8 8.0 0.00 3.78 3.78 70 1015.8
20260906005930 28 181 1.6 1.6 0.00 3.78 3.78 74 1015.8
20260906005430 28 115 0.0 0.0 0.00 3.78 3.78 74 1016.0
20260906004928 28 115 0.0 0.0 0.00 3.78 3.78 73 1016.2
20260906004422 28 179 1.6 3.2 0.00 3.78 3.78 72 1016.0
20260906003918 29 132 0.0 1.6 0.00 3.78 3.78 70 1016.1
20260906003414 28 37 1.6 3.2 0.00 3.78 3.78 70 1016.0
20260906002909 28 168 1.6 1.6 0.00 3.78 3.78 70 1016.4
20260906002408 28 160 0.0 1.6 0.00 3.78 3.78 76 1016.3
20260906001904 28 106 0.0 0.0 0.00 3.78 3.78 78 1016.7
20260906001359 28 137 1.6 3.2 0.00 3.78 3.78 78 1016.7
20260906000854 26 64 1.6 1.6 0.00 3.78 3.78 86 1016.7
20260906000355 25 150 0.0 1.6 0.00 3.78 3.78 92 1016.5
20260905235849 25 71 1.6 1.6 0.00 3.78 3.78 99 1016.6
20260905235343 24 94 0.0 1.6 0.00 3.78 3.78 99 1016.4
20260905234838 24 84 4.8 11.3 0.00 3.78 3.78 99 1016.5
20260905234334 25 62 1.6 3.2 0.00 3.78 3.78 99 1016.6
20260905233829 25 42 1.6 3.2 0.00 3.78 3.78 99 1016.2
20260905233324 26 65 0.0 1.6 0.00 3.78 3.78 99 1016.0
20260905232822 26 81 0.0 0.0 0.00 3.78 3.78 99 1015.8
20260905232319 26 111 0.0 1.6 0.48 3.78 3.78 99 1015.6
20260905231815 26 153 0.0 0.0 2.34 3.78 3.78 99 1015.5
20260905231309 26 292 1.6 3.2 3.17 3.66 3.66 99 1015.4
20260905230806 26 321 0.0 1.6 3.48 3.35 3.35 99 1015.4
20260905230304 26 228 0.0 1.6 3.78 3.07 3.07 96 1015.6
20260905225803 27 281 0.0 1.6 3.66 2.72 2.72 93 1015.5
20260905225258 28 284 0.0 3.2 2.59 2.31 2.31 90 1015.5
20260905224758 35 163 0.0 3.2 0.48 1.96 1.96 79 1015.7
20260905224253 34 100 0.0 3.2 0.00 1.88 1.88 62 1015.4
20260905223749 35 182 1.6 1.6 0.00 1.88 1.88 61 1015.5
20260905223246 35 208 3.2 4.8 0.00 1.88 1.88 59 1015.5
20260905222741 35 130 0.0 1.6 0.00 1.88 1.88 57 1015.4
20260905222240 35 183 0.0 1.6 0.00 1.88 1.88 59 1015.6
20260905221736 35 201 0.0 1.6 0.00 1.88 1.88 58 1015.5
20260905221233 36 150 0.0 3.2 0.00 1.88 1.88 55 1015.6
20260905220729 36 300 1.6 3.2 0.00 1.88 1.88 52 1015.6
20260905220225 36 184 0.0 1.6 0.00 1.88 1.88 54 1015.6
20260905215724 36 174 0.0 1.6 0.00 1.88 1.88 54 1015.3
20260905215220 35 80 3.2 4.8 0.00 1.88 1.88 54 1015.7
20260905214715 36 106 4.8 8.0 0.00 1.88 1.88 53 1015.3
20260905214210 37 86 0.0 1.6 0.00 1.88 1.88 53 1015.4
20260905213706 37 30 3.2 8.0 0.00 1.88 1.88 48 1015.3
20260905213202 37 199 1.6 3.2 0.00 1.88 1.88 49 1015.5
20260905212657 36 204 1.6 3.2 0.00 1.88 1.88 50 1015.6
20260905212155 36 202 4.8 8.0 0.00 1.88 1.88 51 1015.7
20260905211651 36 194 4.8 8.0 0.00 1.88 1.88 50 1015.6
20260905211146 36 208 0.0 4.8 0.00 1.88 1.88 51 1015.6
20260905210643 37 196 4.8 9.7 0.00 1.88 1.88 48 1015.8
20260905210143 36 208 0.0 1.6 0.00 1.88 1.88 50 1015.8
20260905205642 36 225 3.2 8.0 0.00 1.88 1.88 53 1016.1
20260905205142 36 206 8.0 9.7 0.00 1.88 1.88 53 1016.0
20260905204641 37 199 6.4 8.0 0.00 1.88 1.88 47 1016.2
20260905204136 37 275 3.2 3.2 0.00 1.88 1.88 48 1016.0
20260905203637 38 118 1.6 9.7 0.00 1.88 1.88 49 1016.2
20260905203132 38 50 1.6 4.8 0.00 1.88 1.88 48 1016.1
20260905202628 38 275 6.4 8.0 0.00 1.88 1.88 47 1016.3
20260905202123 37 253 1.6 8.0 0.00 1.88 1.88 48 1016.2
20260905201619 37 42 4.8 9.7 0.00 1.88 1.88 49 1016.3
20260905201118 38 307 6.4 11.3 0.00 1.88 1.88 48 1016.3
20260905200614 37 238 0.0 3.2 0.00 1.88 1.88 49 1016.6
20260905200109 37 274 6.4 11.3 0.00 1.88 1.88 48 1016.5
20260905195607 37 258 0.0 1.6 0.00 1.88 1.88 50 1016.7
20260905195103 36 64 0.0 3.2 0.00 1.88 1.88 51 1016.8
20260905194602 36 38 3.2 4.8 0.00 1.88 1.88 51 1017.0
20260905194102 38 78 1.6 8.0 0.00 1.88 1.88 49 1017.2
20260905193557 37 176 1.6 3.2 0.00 1.88 1.88 50 1016.8
20260905193052 37 83 1.6 3.2 0.00 1.88 1.88 49 1017.0
20260905192547 37 269 3.2 3.2 0.00 1.88 1.88 49 1016.9
20260905192044 36 271 3.2 3.2 0.00 1.88 1.88 53 1017.0
20260905191541 35 55 0.0 1.6 0.00 1.88 1.88 54 1017.3
20260905191036 36 281 8.0 9.7 0.00 1.88 1.88 52 1017.1
20260905190534 36 177 0.0 0.0 0.00 1.88 1.88 51 1017.3
20260905190034 36 113 0.0 4.8 0.00 1.88 1.88 54 1017.3
20260905185533 36 277 6.4 8.0 0.00 1.88 1.88 50 1017.3
20260905185032 36 281 3.2 4.8 0.00 1.88 1.88 52 1017.2
20260905184527 37 273 6.4 9.7 0.00 1.88 1.88 51 1017.4
20260905184025 37 303 1.6 8.0 0.00 1.88 1.88 51 1017.5
20260905183520 37 233 0.0 8.0 0.00 1.88 1.88 52 1017.5
20260905183015 37 190 3.2 8.0 0.00 1.88 1.88 52 1017.9
20260905182515 36 165 3.2 4.8 0.00 1.88 1.88 53 1017.9
20260905182009 36 86 0.0 4.8 0.00 1.88 1.88 55 1018.0
20260905181504 36 142 0.0 3.2 0.00 1.88 1.88 55 1017.9
20260905181003 35 285 3.2 4.8 0.00 1.88 1.88 55 1017.9
20260905180458 36 274 3.2 4.8 0.00 1.88 1.88 54 1018.1
20260905175953 36 353 1.6 1.6 0.00 1.88 1.88 55 1018.0
20260905175452 36 78 1.6 4.8 0.00 1.88 1.88 55 1018.4
20260905174948 36 82 3.2 9.7 0.00 1.88 1.88 54 1018.4
20260905174443 36 316 4.8 9.7 0.00 1.88 1.88 55 1018.4
20260905173939 36 38 3.2 3.2 0.00 1.88 1.88 57 1018.4
20260905173435 36 168 3.2 8.0 0.00 1.88 1.88 57 1018.4
20260905172931 35 189 1.6 8.0 0.00 1.88 1.88 58 1018.7
20260905172428 33 45 1.6 4.8 0.00 1.88 1.88 63 1018.6
20260905171925 30 298 4.8 9.7 0.00 1.88 1.88 73 1018.6
20260905171421 27 317 1.6 8.0 0.00 1.88 1.88 97 1018.9
20260905170917 26 192 1.6 3.2 0.00 1.88 1.88 99 1018.6
20260905170413 27 210 3.2 4.8 0.00 1.88 1.88 99 1018.8
20260905165912 27 200 1.6 4.8 0.00 1.88 1.88 99 1019.1
20260905165407 26 273 4.8 4.8 0.00 1.88 1.88 99 1018.8
20260905164902 26 187 1.6 4.8 1.98 1.88 1.88 99 1019.0
20260905164357 27 271 1.6 3.2 3.07 1.78 1.78 99 1019.0
20260905163852 27 167 0.0 4.8 3.66 1.50 1.50 96 1018.9
20260905163349 27 60 0.0 1.6 3.84 1.19 1.19 95 1019.2
20260905162844 27 250 1.6 3.2 3.17 0.81 0.81 93 1019.1
20260905162344 27 182 3.2 8.0 3.17 0.53 0.53 89 1019.5
20260905161839 29 75 0.0 1.6 1.37 0.23 0.23 90 1019.4
20260905161338 33 262 1.6 4.8 0.00 0.00 0.00 65 1019.3
20260905160836 33 140 0.0 0.0 0.00 0.00 0.00 65 1019.5
20260905160331 33 206 1.6 3.2 0.00 0.00 0.00 66 1019.8
20260905155825 32 264 1.6 3.2 0.00 0.00 0.00 68 1019.6
20260905155325 33 188 0.0 4.8 0.00 0.00 0.00 66 1019.4
20260905154819 32 197 3.2 3.2 0.00 0.00 0.00 69 1019.6
20260905154315 32 175 3.2 3.2 0.00 0.00 0.00 70 1019.9
20260905153810 31 177 0.0 3.2 0.00 0.00 0.00 72 1019.9
20260905153307 31 213 4.8 4.8 0.00 0.00 0.00 71 1019.7
20260905152806 31 182 0.0 3.2 0.00 0.00 0.00 72 1020.1
20260905152306 31 195 1.6 3.2 0.00 0.00 0.00 74 1019.8
20260905151800 30 207 3.2 3.2 0.00 0.00 0.00 73 1019.8
20260905151255 31 142 0.0 1.6 0.00 0.00 0.00 74 1020.0
20260905150750 30 147 0.0 1.6 0.00 0.00 0.00 78 1019.8
20260905150250 28 269 1.6 3.2 0.00 0.00 0.00 80 1019.7
20260905145747 28 173 1.6 3.2 0.00 0.00 0.00 81 1020.0
20260905145242 28 191 0.0 1.6 0.00 0.00 0.00 82 1020.1
20260905144740 28 162 1.6 3.2 0.00 0.00 0.00 84 1020.1
20260905144236 27 195 0.0 0.0 0.00 0.00 0.00 87 1020.0
20260905143735 27 181 0.0 0.0 0.00 0.00 0.00 89 1020.0
20260905143235 27 246 0.0 1.6 0.00 0.00 0.00 89 1020.2
20260905142733 27 233 0.0 1.6 0.00 0.00 0.00 88 1020.1
20260905142228 27 46 0.0 1.6 0.00 0.00 0.00 89 1020.1
20260905141724 27 315 0.0 1.6 0.00 0.00 0.00 89 1020.0
20260905141220 26 328 0.0 1.6 0.00 0.00 0.00 89 1020.2
20260905140715 26 37 0.0 0.0 0.00 0.00 0.00 90 1020.0
20260905140209 26 278 0.0 0.0 0.00 0.00 0.00 90 1020.1
20260905135703 26 275 0.0 1.6 0.00 0.00 0.00 90 1020.2
20260905135200 26 269 0.0 0.0 0.00 0.00 0.00 91 1020.4
20260905134659 26 269 0.0 0.0 0.00 0.00 0.00 91 1020.2
20260905134158 26 269 0.0 0.0 0.00 0.00 0.00 91 1019.9
20260905133653 26 269 0.0 0.0 0.00 0.00 0.00 91 1020.1
20260905133148 26 269 0.0 0.0 0.00 0.00 0.00 92 1020.1
20260905132647 26 269 0.0 0.0 0.00 0.00 0.00 91 1020.3
20260905132142 26 269 0.0 1.6 0.00 0.00 0.00 91 1020.1
20260905131637 26 269 0.0 0.0 0.00 0.00 0.00 91 1020.2
20260905131132 26 269 0.0 0.0 0.00 0.00 0.00 91 1020.3
20260905130626 26 269 0.0 0.0 0.00 0.00 0.00 91 1020.4
20260905130121 25 269 0.0 0.0 0.00 0.00 0.00 92 1020.3
20260905125621 25 270 0.0 0.0 0.00 0.00 0.00 92 1020.2
20260905125117 25 270 0.0 0.0 0.00 0.00 0.00 92 1020.3
20260905124613 25 269 0.0 0.0 0.00 0.00 0.00 92 1020.2
20260905124109 25 269 0.0 0.0 0.00 0.00 0.00 92 1020.4
20260905123604 25 269 0.0 0.0 0.00 0.00 0.00 94 1020.3
20260905123101 25 268 0.0 0.0 0.00 0.00 0.00 94 1020.3
20260905122601 25 269 0.0 0.0 0.00 0.00 0.00 95 1020.0
20260905122055 24 269 0.0 0.0 0.00 0.00 0.00 95 1020.2
20260905121550 24 295 0.0 0.0 0.00 0.00 0.00 96 1020.1
20260905121045 23 295 0.0 0.0 0.00 0.00 0.00 96 1019.9
20260905120544 23 295 0.0 0.0 0.00 0.00 0.00 97 1019.9
20260905120039 23 295 0.0 0.0 0.00 0.00 0.00 97 1020.0
20260905115538 23 273 0.0 0.0 0.00 0.00 0.00 97 1019.9
20260905115033 23 295 0.0 0.0 0.00 0.00 0.00 97 1019.9
20260905114532 23 268 0.0 0.0 0.00 0.00 0.00 97 1020.0
20260905114032 23 268 0.0 0.0 0.00 0.00 0.00 97 1019.5
20260905113527 23 268 0.0 0.0 0.00 0.00 0.00 97 1019.6
20260905113022 23 268 0.0 0.0 0.00 0.00 0.00 97 1019.6
20260905112517 23 268 0.0 0.0 0.00 0.00 0.00 97 1019.5
20260905112012 23 268 0.0 0.0 0.00 0.00 0.00 96 1019.4
20260905111507 23 268 0.0 0.0 0.00 0.00 0.00 96 1019.3
20260905111001 23 295 0.0 0.0 0.00 0.00 0.00 96 1019.1
20260905110501 23 270 0.0 1.6 0.00 0.00 0.00 96 1019.2
20260905110000 23 274 0.0 1.6 0.00 0.00 0.00 96 1019.3
20260905105455 23 285 0.0 1.6 0.00 0.00 0.00 96 1019.0
20260905104954 23 285 1.6 1.6 0.00 0.00 0.00 96 1019.1
20260905104450 23 288 1.6 3.2 0.00 0.00 0.00 96 1018.8
20260905103945 23 285 1.6 1.6 0.00 0.00 0.00 96 1019.0
20260905103440 23 298 1.6 1.6 0.00 0.00 0.00 97 1019.0
20260905102937 23 30 0.0 0.0 0.00 0.00 0.00 97 1018.9
20260905102432 23 30 0.0 0.0 0.00 0.00 0.00 96 1018.7
20260905101927 23 30 0.0 0.0 0.00 0.00 0.00 97 1018.8
20260905101426 23 30 0.0 1.6 0.00 0.00 0.00 97 1018.9
20260905100920 23 30 0.0 0.0 0.00 0.00 0.00 97 1018.7
20260905100416 23 30 0.0 0.0 0.00 0.00 0.00 97 1019.0
20260905095916 23 30 0.0 0.0 0.00 0.00 0.00 97 1019.1
20260905095410 23 30 0.0 0.0 0.00 0.00 0.00 97 1018.9
20260905094910 23 30 0.0 1.6 0.00 0.00 0.00 97 1018.8
20260905094406 23 33 0.0 1.6 0.00 0.00 0.00 97 1019.0
20260905093905 23 36 0.0 0.0 0.00 0.00 0.00 97 1018.8
20260905093401 23 36 0.0 1.6 0.00 0.00 0.00 96 1018.9
20260905092856 23 23 1.6 1.6 0.00 0.00 0.00 96 1018.5
20260905092351 23 23 0.0 1.6 0.00 0.00 0.00 96 1018.8
20260905091846 23 23 0.0 1.6 0.00 0.00 0.00 96 1018.8
20260905091346 23 23 0.0 0.0 0.00 0.00 0.00 96 1018.5
20260905090844 23 23 0.0 0.0 0.00 0.00 0.00 96 1018.7
20260905090341 23 23 0.0 0.0 0.00 0.00 0.00 96 1018.7
20260905085839 24 23 0.0 0.0 0.00 0.00 0.00 96 1018.8
20260905085339 24 23 0.0 0.0 0.00 0.00 0.00 95 1018.7
20260905084835 24 23 0.0 0.0 0.00 0.00 0.00 95 1018.7
20260905084334 24 23 0.0 1.6 0.00 0.00 0.00 95 1018.4
20260905083829 24 24 0.0 0.0 0.00 0.00 0.00 95 1018.6
20260905083325 24 24 0.0 0.0 0.00 0.00 0.00 95 1018.5
20260905082820 25 24 0.0 0.0 0.00 0.00 0.00 94 1018.5
20260905082317 25 24 0.0 0.0 0.00 0.00 0.00 94 1018.7
20260905081811 25 24 0.0 1.6 0.00 0.00 0.00 95 1018.8
20260905081306 25 25 0.0 0.0 0.00 0.00 0.00 94 1018.8
20260905080805 25 25 0.0 0.0 0.00 0.00 0.00 94 1018.6
20260905080300 25 25 0.0 0.0 0.00 0.00 0.00 94 1018.5
20260905075758 25 26 0.0 1.6 0.00 0.00 0.00 94 1018.7
20260905075253 25 277 0.0 0.0 0.00 0.00 0.00 94 1018.6
20260905074752 25 277 0.0 0.0 0.00 0.00 0.00 93 1018.5
20260905074248 25 277 1.6 1.6 0.00 0.00 0.00 93 1018.6
20260905073743 25 284 1.6 3.2 0.00 0.00 0.00 93 1018.6
20260905073238 25 253 0.0 0.0 0.00 0.00 0.00 93 1018.6
20260905072738 25 252 0.0 0.0 0.00 0.00 0.00 93 1018.6
20260905072233 25 273 0.0 3.2 0.00 0.00 0.00 93 1019.0
20260905071730 25 2 0.0 1.6 0.00 0.00 0.00 94 1018.6
20260905071226 25 20 0.0 0.0 0.00 0.00 0.00 94 1018.4
20260905070720 25 20 0.0 0.0 0.00 0.00 0.00 94 1018.8
20260905070217 25 20 0.0 0.0 0.00 0.00 0.00 94 1018.9
20260905065715 25 20 0.0 0.0 0.00 0.00 0.00 94 1018.9
20260905065209 25 20 0.0 0.0 0.00 0.00 0.00 93 1019.1
20260905064705 25 20 0.0 0.0 0.00 0.00 0.00 92 1019.2
20260905064200 25 19 0.0 1.6 0.00 0.00 0.00 92 1019.0
20260905063658 25 290 1.6 1.6 0.00 0.00 0.00 91 1019.0
20260905063155 25 306 0.0 3.2 0.00 0.00 0.00 92 1019.0
20260905062651 25 291 1.6 1.6 0.00 0.00 0.00 92 1019.1
20260905062150 25 356 0.0 1.6 0.00 0.00 0.00 92 1019.0
20260905061645 25 357 0.0 0.0 0.00 0.00 0.00 92 1019.2
20260905061144 25 357 0.0 0.0 0.00 0.00 0.00 92 1019.1
20260905060639 25 340 0.0 1.6 0.00 0.00 0.00 92 1019.1
20260905060136 25 284 0.0 0.0 0.00 0.00 0.00 92 1019.2
20260905055634 25 284 0.0 0.0 0.00 0.00 0.00 92 1019.1
20260905055130 25 285 0.0 0.0 0.00 0.00 0.00 92 1019.3
20260905054626 26 284 0.0 0.0 0.00 0.00 0.00 91 1019.2
20260905054121 26 284 0.0 1.6 0.00 0.00 0.00 91 1019.0
20260905053621 26 284 0.0 1.6 0.00 0.00 0.00 90 1019.0
20260905053116 26 284 1.6 3.2 0.00 0.00 0.00 90 1019.1
20260905052615 26 342 0.0 1.6 0.00 0.00 0.00 90 1019.0
20260905052110 26 343 0.0 1.6 0.00 0.00 0.00 89 1018.9
20260905051605 26 349 0.0 0.0 0.00 0.00 0.00 88 1018.9
20260905051102 26 13 1.6 1.6 0.00 0.00 0.00 88 1018.9
20260905050558 26 33 0.0 1.6 0.00 0.00 0.00 88 1019.0
20260905050055 26 29 0.0 0.0 0.00 0.00 0.00 89 1018.9
20260905045548 26 29 0.0 1.6 0.00 0.00 0.00 87 1018.9
20260905045044 26 29 0.0 0.0 0.00 0.00 0.00 86 1018.8
20260905044543 26 29 0.0 0.0 0.00 0.00 0.00 86 1018.9
20260905044038 26 29 0.0 1.6 0.00 0.00 0.00 86 1018.9
20260905043537 26 0 1.6 1.6 0.00 0.00 0.00 86 1019.1
20260905043033 26 24 0.0 0.0 0.00 0.00 0.00 86 1019.1
20260905042532 27 24 0.0 1.6 0.00 0.00 0.00 85 1019.1
20260905042027 27 346 0.0 1.6 0.00 0.00 0.00 84 1019.2
20260905041523 26 26 0.0 0.0 0.00 0.00 0.00 85 1019.3
20260905041018 27 26 0.0 1.6 0.00 0.00 0.00 84 1019.3
20260905040517 27 26 0.0 0.0 0.00 0.00 0.00 83 1019.5
20260905040016 27 28 0.0 1.6 0.00 0.00 0.00 83 1019.3
20260905035511 27 307 0.0 1.6 0.00 0.00 0.00 84 1019.5
20260905035008 27 24 0.0 1.6 0.00 0.00 0.00 83 1019.5
20260905034503 27 24 0.0 1.6 0.00 0.00 0.00 83 1019.6
20260905034003 27 24 0.0 0.0 0.00 0.00 0.00 82 1019.8
20260905033457 27 24 0.0 1.6 0.00 0.00 0.00 82 1019.4
20260905032952 27 25 0.0 0.0 0.00 0.00 0.00 80 1019.5
20260905032448 28 25 0.0 0.0 0.00 0.00 0.00 81 1019.1
20260905031942 28 25 0.0 0.0 0.00 0.00 0.00 81 1019.7
20260905031438 28 25 0.0 0.0 0.00 0.00 0.00 80 1019.7
20260905030933 28 25 0.0 0.0 0.00 0.00 0.00 80 1019.7
20260905030429 28 25 0.0 0.0 0.00 0.00 0.00 79 1019.7
20260905025927 28 24 0.0 0.0 0.00 0.00 0.00 79 1019.9
20260905025423 28 25 0.0 0.0 0.00 0.00 0.00 78 1019.8
20260905024919 28 25 0.0 0.0 0.00 0.00 0.00 78 1019.8
20260905024414 28 25 0.0 1.6 0.00 0.00 0.00 77 1019.6
20260905023910 28 25 0.0 0.0 0.00 0.00 0.00 77 1019.7
20260905023405 28 25 0.0 0.0 0.00 0.00 0.00 77 1019.6
20260905022903 29 24 0.0 0.0 0.00 0.00 0.00 77 1019.6